Regional Weather Roundup
Issued by NWS Sterling, VA

Home | Current Version | Previous Version | Graphics & Text | Print | Product List | Glossary On
Versions: 1 2 3 4 5 6 7 8 9 10 11 12 13 14 15 16 17 18 19 20 21 22 23 24 25 26 27
000
ASUS41 KLWX 102210
RWRLWX

REGIONAL WEATHER ROUNDUP
NATIONAL WEATHER SERVICE BALTIMORE MD/WASHINGTON DC
500 PM EST SAT DEC 10 2016

Note: "FAIR" indicates few or no clouds below 12,000 feet
with no significant weather and/or obstructions to visibility.
 TC=TEMPERATURE CELSIUS

 * =Non NWS site. Station does not report precipitation (e.g. rain,
    snow, etc.), thunder, or fog.

DCZ001-MDZ009-015-VAZ040>042-051-053>054-102300-
WASHINGTON METRO

CITY           SKY/WX    TMP DP  RH WIND       PRES   REMARKS
WASHINGTON NAT PTCLDY    33  12  41 NW9       30.50R WCI  25
DULLES         PTCLDY    30  10  43 NW12      30.48R WCI  20
ANDREWS AFB    CLEAR     31  10  41 NW12      30.47  WCI  22
QUANTICO       CLEAR     35  13  40 N8        30.50R WCI  29
COLLEGE PARK*  CLEAR     32  10  40 NW9       30.48R WCI  24
LEESBURG*      CLEAR     32  18  55 NW9       30.49R WCI  24
MANASSAS*      CLEAR    N/A N/A N/A N12       30.49R
GAITHERSBURG*  CLEAR     28   9  43 NW9       30.51R WCI  20

$$

MDZ006>007-011-014-102300-
BALTIMORE METRO

CITY           SKY/WX    TMP DP  RH WIND       PRES   REMARKS
BWI AIRPORT    PTCLDY    31  13  47 W10       30.47R WCI  22
MD SCIENCE CTR   N/A     35   9  33 MISG      30.47R
MARTIN STATE   PTCLDY    36  16  44 W14       30.48R WCI  27
ANNAPOLIS      CLEAR     35  13  40 W9        30.48R WCI  28
FORT MEADE*    CLEAR     32  12  43 W8        30.50R WCI  25

$$

MDZ012-015-019>023-102300-
MARYLAND EASTERN SHORE

CITY           SKY/WX    TMP DP  RH WIND       PRES   REMARKS
OCEAN CITY     CLEAR     33  17  51 NW5       30.46R
SALISBURY      CLEAR     34  15  46 NW6       30.46R
BAY BRIDGE AP* CLEAR     34  14  44 MISG      30.47R
CAMBRIDGE*     CLEAR     32  14  47 NW7       30.46R
EASTON*        PTCLDY    34  12  40 NW9       30.49R WCI  26

$$

MDZ017>025-102300-
SOUTHERN MARYLAND

CITY           SKY/WX    TMP DP  RH WIND       PRES   REMARKS
PATUXENT RIVER PTCLDY    34  15  46 NW8       30.46R WCI  27
ST INIGOES     CLEAR     35  15  44 W10       30.46R WCI  27
LEONARDTOWN*   CLEAR     34  14  44 W3        30.48R

$$

MDZ003>005-102300-
NORTH CENTRAL MARYLAND

CITY           SKY/WX    TMP DP  RH WIND       PRES   REMARKS
FREDERICK*     CLEAR     30  12  47 NW9       30.51R WCI  22
HAGERSTOWN APT CLEAR     29  10  45 W7        30.46R
WESTMINSTER*     N/A     28  10  47 W9        30.43R WCI  20

$$

MDZ501>502-102300-
WESTERN MARYLAND

CITY           SKY/WX    TMP DP  RH WIND       PRES   REMARKS
OAKLAND*       CLOUDY    16  12  86 W6        30.33R FOG
CUMBERLAND*    NOT AVBL

$$

VAZ025>031-102300-
SHENANDOAH VALLEY

CITY           SKY/WX    TMP DP  RH WIND       PRES   REMARKS
WINCHESTER*    CLEAR     28  10  47 NW3       30.47R
FRONT ROYAL*   FAIR      30  12  47 NW7       30.46R
LURAY*         FAIR      32  16  51 N8        30.45R WCI  25
NEW MARKET*    FAIR      31   6  35 CALM      30.44R
STAUNTON*      CLEAR     31  12  44 CALM      30.44R
WAYNESBORO*    FAIR      31   8  38 CALM      30.41R

$$

WVZ021-048>050-054>055-102300-
EASTERN WEST VIRGINIA PANHANDLE

CITY           SKY/WX    TMP DP  RH WIND       PRES   REMARKS
MARTINSBURG    MOCLDY    29  11  47 W12       30.48R WCI  19
PETERSBURG*    CLEAR     28  13  54 W7        30.49R

$$

VAZ036>039-050-102300-
CENTRAL FOOTHILLS

CITY           SKY/WX    TMP DP  RH WIND       PRES   REMARKS
CHARLOTTESVILL CLEAR     36  11  35 CALM      30.45R
CULPEPER*      CLEAR     33  13  43 CALM      30.49R
ORANGE*          N/A     34  14  44 CALM      30.48R
GORDONSVILLE*  FAIR      32  14  46 CALM      30.46R
WARRENTON*     FAIR      32   8  37 N7        30.47R

$$

VAZ055>057-102300-
NORTH AND CENTRAL PIEDMONT

CITY           SKY/WX    TMP DP  RH WIND       PRES   REMARKS
FREDERICKSBRG* CLEAR     36  16  44 NW3       30.48R
STAFFORD*      CLEAR     32  14  47 NW3       30.52R

$$

NCZ024-NYZ072-PAZ021-071-VAZ022-071-102300-
OTHER REGIONAL OBSERVATIONS

CITY           SKY/WX    TMP DP  RH WIND       PRES   REMARKS
NEW YORK CITY  PTCLDY    34  18  52 NW8       30.40R WCI  27
PHILADELPHIA   MOCLDY    36  13  38 NW8       30.43R
PITTSBURGH     FLURRIES  26  17  68 W5        30.44S
ROANOKE        PTCLDY    35  10  35 NW7       30.45S
RICHMOND       PTCLDY    35  12  38 W6        30.48R
RALEIGH        PTCLDY    40  10  29 CALM      30.47S

$$

ANZ530>537-102300-
MARINE OBSERVATIONS

STATION/POSITION TIME  TEMP    WIND        PRES
                       AIR SEA DIR/SP/G
                 (UTC) (F)     (DEG/KT/KT) (MB)
THOMAS PT LIGHT  2200   35 45  310/ 13/ 15   N/A
BALT KEY BRIDGE  2136   35     270/ 15/ 17 1031.4R
COVE POINT       2136   35     350/ 15/ 17 1032.0R
LEWISETTA        2136   37 43  320/  7/  9 1031.3R
SOLOMONS ISLAND  2136   36 48  330/  9/ 13   N/A
PINEY POINT      2148          340/ 11/ 12   N/A

$$





USA.gov is the U.S. government's official web portal to all federal, state and local government web resources and services.